COSMOS 1691 DEB, 16272

Orbit data source: Space-Track

COSMOS 1691 DEB, 16272 is space debris in LEO originally from a launch on Wed, 09 Oct 1985 UTC launched from the Plesetsk Missile And Space Complex (PKMTR). Debris objects in space refer to the collection of defunct objects orbiting the Earth. Examples of debris include non-operational satellites, rocket bodies, and fragments generated from explosions, collisions, or faulty payload assembly.

Loading next visibility...
Identifier
16272, 1985-094R
Orbit
LEO
Country
Flag of CISCIS
Related business
Manufacturer
Unknown
Mission
Spacecraft
Bus & Motor
Unknown
Mass
Unknown
Launch date (UTC)
1985-10-09 (40 years ago)
Launch vehicle
Unknown
Launch site
Plesetsk Missile And Space Complex (PKMTR)
Object type
Payload
Rocket body
Debris
Shape & HBR
Unknown shape, 0.1 m
Radar Cross Section
Small (<0.1 m²)

Expand to show TLE details & history
Last TLE update: 7 hours ago

TLE from 7 hours ago
0 COSMOS 1691 DEB
1 16272U 85094R   26037.25846390  .00000320  00000-0  14447-2 0  9996
2 16272  82.6140 221.5852 0046088 259.2949 222.4475 12.75230383871323
Epoch: 2026-02-06T06:12Z
TLE epoch observation values (Epoch: 2026-02-06T06:12:11.280Z)
Latitude
57.93218°
Longitude
160.2582°
Altitude
1,396.816 km
Speed
7.155 km/s
True Right ascension
01h 58m 48s
True Declination
57° 47' 24"
Sunlit
Object was in daylight at epoch
Visualization orbit readout
Latitude
Unknown
Longitude
Unknown
Altitude
Unknown
Speed
Unknown
Apparent Right ascension
Unknown
Apparent Declination
Unknown
Sunlit
N/A
Visualization observer readout
Local Sidereal Time
15:24:21
Azimuth
Unknown
Elevation
Unknown
Doppler factor
Unknown
Orbital elements
Apogee altitude
1,393.662 km
Perigee altitude
1,322.353 km
Semi-major axis
7,736.145 km
Eccentricity
0.00461
Inclination
82.614°
RAAN
221.5852°
Arg. of periapsis
259.2949°
True anomaly
222.09257°
Mean anomaly
222.4475°
Eccentric anomaly
222.26988°
Mean motion
3.18975 °/min
Orbital period
112.86 mins
BSTAR
0.0014447
Loading maneuver chart data...
Computing Atmospheric mass density...
Loading historical data...
Loading historical data...
Loading historical data...
Loading historical data...
Loading historical data...
Loading historical data...
Loading historical data...

Documentation

Showing up to 5 results
|